SCP
0 0 0 0 1 1 0 0 0 0 0 0 0 0 0 0 0 0 0 0 0 0 -0 0 0 1 1 1 1 1 0 0 0 0 0 0 0 0 0 0 0 0 0
1 0 0 0 0 0 1 1 1 0 0 0 0 0 0 0 0 0 0 0 0 0 0 0 0 1 1 1 1 1 1 0 0 0 0 0 0 0 0 0 0 0 0
0 0 1 0 0 1 1 1 1 1 1 0 0 0 0 0 0 0 0 0 0 0 0 0 0 0 1 1 0 1 1 1 0 0 0 0 -0 0 0 0 0 0 0
1 0 1 1 1 1 1 1 1 1 1 1 0 0 0 0 0 0 0 0 0 0 0 0 1 1 1 0 0 1 1 1 0 0 0 0 0 -0 0 -0 0 0 0
1 0 1 1 1 1 1 1 1 1 1 1 1 0 1 1 1 0 0 0 0 0 0 0 1 1 1 0 0 1 1 1 0 0 0 0 0 0 0 -0 -0 0 0
1 1 1 1 1 1 1 1 1 1 1 1 1 1 1 1 1 1 1 0 0 0 1 1 1 1 0 1 1 1 1 1 1 0 0 0 0 0 0 0 -0 -0 0
1 1 1 1 1 1 1 1 1 1 1 1 1 1 1 1 1 1 1 1 1 1 1 1 1 1 1 0 1 1 1 1 1 1 0 0 0 0 0 0 0 0 -0
1 1 1 1 1 1 2 2 2 2 2 2 2 2 2 1 1 1 1 1 1 1 1 1 1 0 1 1 1 1 1 1 1 1 1 1 1 1 0 0 0 0 0
0 0 0 0 1 1 1 2 2 1 1 1 1 2 2 1 1 1 1 1 1 1 0 1 1 1 1 2 2 1 1 1 1 1 1 1 1 1 0 1 1 1 1
0 0 0 0 1 1 1 1 1 2 2 2 2 1 1 3 2 1 1 1 1 0 0 0 0 0 0 2 2 2 1 1 1 1 1 1 1 1 1 1 1 1 1
0 0 0 0 0 0 1 1 1 2 2 2 2 2 2 2 2 2 1 1 0 0 0 0 0 0 0 0 0 1 1 0 1 1 1 1 1 1 1 1 1 1 1
0 -0 0 0 0 0 0 0 0 1 1 1 1 1 1 1 1 1 1 1 0 0 0 0 0 0 0 0 -0 0 1 1 0 1 1 1 1 1 1 1 1 1 1
0 0 0 0 0 0 0 0 0 0 0 0 0 0 0 0 0 1 0 0 0 0 0 0 0 0 0 0 0 0 0 0 0 0 0 0 1 0 0 0 1 1 1
0 0 0 0 0 0 0 0 0 0 0 0 0 0 0 0 0 0 0 1 0 0 0 0 0 0 0 0 0 0 -0 0 0 0 0 0 0 0 0 0 0 0 0
0 0 0 0 0 0 0 0 0 0 0 0 0 0 0 0 0 0 0 1 0 0 0 0 0 0 0 0 0 0 0 0 0 0 0 0 0 0 0 0 0 0 0
0 0 0 0 0 0 0 0 0 0 0 0 0 0 0 0 0 0 0 0 0 0 0 0 0 0 0 0 0 0 0 0 0 0 0 0 0 0 0 0 0 0 0
0 0 0 0 0 0 0 0 0 0 0 0 0 0 0 0 0 0 0 0 0 0 0 0 0 0 0 0 0 -0 -0 -0 -0 0 0 0 0 0 0 0 0 0 0
0 0 0 0 0 0 0 0 0 0 0 0 0 0 0 0 0 0 0 0 0 0 0 0 0 0 0 0 0 0 0 0 1 0 0 0 0 0 0 0 0 0 0
0 0 0 0 0 0 0 0 0 0 0 0 0 0 0 0 0 0 0 0 0 0 0 0 0 0 0 0 1 1 0 0 0 0 0 0 0 0 0 0 0 0 0
0 0 0 0 0 0 0 0 0 0 0 0 0 0 0 0 0 0 0 0 0 0 0 0 0 0 0 0 0 0 0 0 0 0 0 0 0 0 0 0 0 0 0
0 0 0 0 0 0 0 0 0 0 0 0 1 0 0 0 0 0 0 0 0 0 0 0 0 0 0 0 0 0 0 0 0 1 1 0 0 0 0 0 0 0 0
0 0 0 0 0 0 0 0 0 0 0 0 1 1 0 0 0 0 0 0 0 0 0 0 0 0 0 0 0 0 0 0 0 0 0 0 0 0 0 0 0 0 0
0 0 0 0 0 0 0 0 0 0 0 0 0 0 0 0 0 0 0 0 0 0 0 0 0 0 0 0 0 0 0 0 0 0 0 0 0 0 0 0 0 0 0
0 0 0 0 0 0 0 0 0 0 0 0 0 0 0 0 0 0 0 0 0 0 0 0 0 0 0 0 0 0 0 0 0 0 0 0 0 0 0 0 0 0 0
0 0 0 0 0 0 0 0 0 0 0 0 0 0 0 0 0 0 0 0 0 0 0 0 0 0 0 0 0 0 0 0 0 0 0 0 0 0 0 0 0 0 0
0 0 0 0 0 0 0 0 0 0 0 0 0 0 0 0 0 0 0 0 0 0 0 0 0 0 0 0 0 0 0 0 0 0 0 0 0 0 0 0 0 0 0
Wind_Speed_500mb
40 38 36 36 35 36 36 37 36 37 37 38 41 41 40 45 37 42 39 40 41 39 40 42 38 35 33 31 28 33 25 29 30 23 23 29 22 25 23 23 25 22 21
35 34 34 35 37 37 38 39 44 42 47 46 46 46 46 48 47 46 46 46 47 45 44 44 39 33 38 37 33 36 34 31 34 30 27 25 31 29 29 27 28 26 24
25 27 27 27 28 32 33 37 39 45 48 50 51 51 49 46 48 49 50 53 51 50 48 50 47 42 42 44 43 41 35 36 39 36 36 32 31 33 35 34 30 32 29
24 30 29 28 28 31 31 34 33 37 41 45 48 51 52 51 49 49 50 49 51 48 48 46 45 48 49 49 50 46 44 43 43 39 36 34 34 35 37 34 37 34 35
33 37 30 29 29 33 34 34 37 40 43 43 44 45 44 45 49 51 52 47 47 49 49 46 45 48 50 50 50 50 51 49 47 47 42 40 40 37 40 36 37 37 36
27 28 32 30 31 34 37 40 43 41 42 45 48 48 45 42 43 49 53 55 51 50 48 52 50 51 48 46 50 50 50 51 51 51 49 47 46 43 42 43 41 40 40
29 29 32 36 40 41 43 47 50 51 50 51 49 52 53 51 50 50 54 55 55 54 50 53 56 57 58 53 50 53 57 55 53 52 54 51 49 46 42 45 46 42 42
30 28 30 35 39 41 43 45 49 51 55 53 50 32 31 35 55 56 53 52 52 56 57 55 65 66 63 61 61 56 59 62 54 55 53 51 51 48 43 42 44 45 46
18 22 27 31 36 40 44 45 46 50 51 51 47 33 18 26 37 41 48 54 63 66 68 75 86 85 90 83 74 68 59 58 55 56 53 53 44 45 46 45 43 43 46
20 22 23 26 28 31 34 37 40 46 50 51 48 51 49 41 31 37 44 51 52 59 59 55 70 71 97 79 77 81 67 62 59 56 55 51 45 45 47 43 43 47 47
16 16 19 22 24 25 27 30 35 41 46 46 47 48 43 48 55 55 55 49 67 70 69 66 63 79 77 70 51 54 68 68 62 59 56 51 42 41 38 38 40 44 50
15 14 14 12 14 19 24 26 29 34 38 40 43 42 48 53 48 42 38 54 56 65 64 70 73 75 77 81 88 66 41 50 56 60 54 52 45 45 43 42 42 49 49
18 17 16 13 16 18 17 18 23 27 33 38 39 41 44 49 48 52 55 63 62 59 52 71 75 75 78 70 78 89 63 63 54 58 57 56 47 47 47 49 47 50 51
24 21 20 21 21 21 19 19 22 26 29 31 33 38 43 45 35 38 46 46 53 55 49 57 69 64 64 64 74 83 85 81 72 55 58 58 53 52 54 53 48 47 52
34 32 31 30 31 32 30 27 27 26 26 26 28 31 36 42 45 45 47 51 53 55 62 66 58 46 62 59 60 48 50 61 65 56 62 63 59 55 55 51 51 48 43
43 43 43 43 43 45 43 42 41 40 38 39 38 39 39 42 44 46 45 48 51 60 71 60 63 64 58 59 63 64 73 66 69 65 65 68 59 56 51 55 52 46 46
53 57 57 59 58 57 57 59 59 58 55 52 50 48 47 46 49 53 55 53 48 49 67 78 67 67 65 67 56 50 44 49 54 72 75 75 67 57 51 53 50 53 55
64 67 70 72 72 73 73 73 74 74 73 69 65 59 55 55 55 56 59 60 55 58 57 68 61 55 54 56 52 53 53 42 44 51 64 65 60 52 48 47 54 55 56
67 72 75 79 82 84 83 85 87 87 87 84 78 70 66 61 60 56 62 54 53 55 61 64 70 61 51 42 39 41 51 54 57 47 53 57 50 43 42 50 55 53 54
62 67 73 78 81 83 84 81 79 88 96 94 90 82 74 70 70 68 63 64 55 57 60 64 65 64 58 49 50 40 35 44 63 55 48 48 43 41 46 52 57 54 55
79 82 85 89 91 92 91 80 86 84 87 94 96 91 85 80 76 72 58 56 59 61 62 63 59 52 50 43 41 39 40 40 49 54 56 45 41 45 49 51 50 52 51
89 90 94 98 103 106 96 102 95 88 82 82 89 92 96 90 82 77 75 74 75 69 71 69 67 60 58 60 47 44 52 49 52 51 62 54 47 46 47 48 52 59 59
84 86 86 84 87 83 88 95 93 96 95 85 84 84 87 79 80 84 81 81 87 88 83 85 81 70 62 59 53 58 55 49 47 46 50 42 43 46 46 50 56 61 57
69 69 70 71 72 71 73 78 76 72 74 80 81 80 82 81 70 62 63 68 78 82 82 87 89 93 79 64 53 58 57 56 51 41 34 32 35 35 40 51 52 53 49
59 61 59 68 69 68 62 63 62 58 59 61 63 71 81 82 80 82 82 86 101 109 95 87 81 76 78 80 72 63 63 50 42 36 36 34 29 31 33 38 41 41 36
71 60 68 65 59 60 54 56 58 51 56 56 51 50 59 77 83 91 102 97 97 91 89 86 86 79 74 68 63 57 59 46 30 20 32 32 27 24 11 28 20 20 25
Wind_Direction_500mb
247 249 254 257 262 267 272 275 273 275 275 275 276 270 268 272 267 265 267 262 264 267 273 280 284 274 274 279 282 276 273 277 275 264 267 278 262 259 261 264 272 259 256
252 253 258 262 263 265 268 269 272 272 271 272 270 272 271 273 276 275 272 268 266 264 262 267 275 263 271 273 280 282 278 283 275 272 270 267 272 267 259 252 261 264 260
252 250 255 262 270 267 264 267 271 272 271 273 272 273 271 271 273 275 272 273 274 267 268 268 266 263 266 273 275 280 285 284 278 274 270 265 268 269 265 262 254 259 256
257 258 256 269 273 269 266 269 273 272 275 278 277 272 267 268 268 269 271 274 274 272 271 271 263 262 264 274 276 277 278 278 281 284 287 279 276 273 273 266 265 256 256
242 249 255 263 264 267 269 273 279 281 281 281 281 280 272 266 265 266 265 269 266 269 269 271 265 270 269 269 270 270 275 277 277 277 281 282 279 269 265 264 264 266 264
243 255 258 264 271 272 272 270 272 274 276 277 277 279 278 271 268 265 264 263 264 266 265 264 264 263 270 275 274 266 270 275 277 274 277 278 278 273 266 263 261 262 259
258 271 273 276 278 274 274 273 273 273 273 273 275 277 276 272 267 265 261 263 264 266 270 274 270 266 267 272 267 268 268 270 274 276 280 276 274 270 266 262 262 264 264
265 269 276 281 284 284 281 279 277 275 275 272 272 270 277 270 270 265 261 261 268 266 265 272 280 273 267 267 268 266 266 270 269 280 281 276 269 264 262 264 262 261 259
263 273 279 284 286 288 288 284 277 273 273 274 271 248 254 261 274 271 268 269 264 267 267 261 260 265 273 268 266 264 259 263 269 281 283 275 260 262 264 264 260 257 255
272 285 298 300 295 290 285 281 275 270 267 265 268 263 253 251 267 278 273 268 265 271 271 268 266 266 268 267 264 256 253 254 264 276 281 261 257 261 260 257 260 260 261
295 307 301 298 300 299 292 287 282 276 273 271 264 264 265 263 258 258 270 270 273 276 277 274 265 273 279 248 244 247 245 255 257 267 272 252 255 255 255 263 263 266 270
287 284 294 311 324 311 297 290 283 278 278 275 272 265 265 266 264 264 263 268 276 273 274 274 272 274 266 270 261 254 256 263 257 255 257 247 248 252 264 264 265 267 273
278 279 285 281 307 331 322 307 298 291 285 281 280 278 271 266 266 266 272 275 274 275 280 270 266 270 273 275 264 250 255 258 272 257 251 246 249 255 261 263 263 268 273
274 273 272 280 291 302 308 306 303 295 291 289 285 280 278 278 274 272 267 269 270 273 271 273 269 269 274 285 281 267 263 257 261 246 247 242 250 258 261 264 266 267 272
272 267 263 271 280 284 284 288 289 285 289 292 295 293 291 289 287 286 276 268 268 272 270 273 277 277 277 279 277 258 257 247 252 251 244 241 250 253 260 264 268 270 262
267 267 272 273 274 271 271 271 270 271 274 279 285 291 297 297 294 287 280 275 269 266 269 269 269 274 279 280 278 271 274 268 257 246 245 241 246 252 256 262 267 260 262
262 262 263 265 266 269 271 269 270 269 265 269 273 277 284 287 294 294 289 279 270 266 265 269 269 273 271 277 278 280 271 276 268 246 242 239 243 248 252 259 262 264 267
266 265 265 266 267 268 267 266 267 267 267 263 266 267 268 276 282 287 288 286 277 275 271 271 268 268 273 277 274 262 262 263 265 258 240 233 237 237 248 259 260 266 269
265 264 266 268 271 271 272 271 268 265 264 265 263 261 266 267 269 274 280 277 276 274 272 269 269 265 268 269 265 269 264 256 263 263 245 234 229 236 253 259 264 266 265
274 272 271 270 270 269 269 267 264 264 263 260 259 259 262 259 265 271 270 278 280 275 274 271 266 266 263 263 264 262 259 268 258 255 258 236 234 246 253 261 264 261 262
275 274 272 271 271 271 270 267 268 266 263 262 259 257 257 258 258 261 257 270 280 279 269 264 265 259 258 258 252 252 266 272 269 250 249 242 240 249 257 260 259 255 256
281 280 278 276 274 272 269 269 267 266 265 261 260 260 256 257 255 252 256 267 270 282 266 260 258 258 258 255 260 260 266 274 261 251 239 237 241 255 258 256 257 259 261
285 283 279 276 273 271 270 269 268 264 264 264 261 256 254 249 251 251 256 263 269 273 275 261 258 254 258 257 262 273 264 255 243 240 229 232 250 250 251 255 258 257 256
283 281 279 277 276 275 274 274 271 267 266 261 261 260 251 244 240 248 255 263 267 272 272 263 256 254 251 253 260 263 271 262 246 238 229 228 236 247 256 259 260 256 254
283 282 278 278 279 279 278 275 273 270 269 265 254 254 248 247 252 256 263 270 271 275 270 265 262 252 253 255 257 262 260 253 238 220 216 227 241 253 254 259 259 250 247
287 281 282 283 278 279 281 281 272 268 264 260 256 250 253 254 261 269 273 269 266 264 263 264 256 252 250 246 243 244 249 235 203 213 233 232 228 222 235 258 250 236 229
Wind_Speed_850mb
40 38 36 36 35 36 36 37 36 37 37 38 41 41 40 45 37 42 39 40 41 39 40 42 38 35 33 31 28 33 25 29 30 23 23 29 22 25 23 23 25 22 21
35 34 34 35 37 37 38 39 44 42 47 46 46 46 46 48 47 46 46 46 47 45 44 44 39 33 38 37 33 36 34 31 34 30 27 25 31 29 29 27 28 26 24
25 27 27 27 28 32 33 37 39 45 48 50 51 51 49 46 48 49 50 53 51 50 48 50 47 42 42 44 43 41 35 36 39 36 36 32 31 33 35 34 30 32 29
24 30 29 28 28 31 31 34 33 37 41 45 48 51 52 51 49 49 50 49 51 48 48 46 45 48 49 49 50 46 44 43 43 39 36 34 34 35 37 34 37 34 35
33 37 30 29 29 33 34 34 37 40 43 43 44 45 44 45 49 51 52 47 47 49 49 46 45 48 50 50 50 50 51 49 47 47 42 40 40 37 40 36 37 37 36
27 28 32 30 31 34 37 40 43 41 42 45 48 48 45 42 43 49 53 55 51 50 48 52 50 51 48 46 50 50 50 51 51 51 49 47 46 43 42 43 41 40 40
29 29 32 36 40 41 43 47 50 51 50 51 49 52 53 51 50 50 54 55 55 54 50 53 56 57 58 53 50 53 57 55 53 52 54 51 49 46 42 45 46 42 42
30 28 30 35 39 41 43 45 49 51 55 53 50 32 31 35 55 56 53 52 52 56 57 55 65 66 63 61 61 56 59 62 54 55 53 51 51 48 43 42 44 45 46
18 22 27 31 36 40 44 45 46 50 51 51 47 33 18 26 37 41 48 54 63 66 68 75 86 85 90 83 74 68 59 58 55 56 53 53 44 45 46 45 43 43 46
20 22 23 26 28 31 34 37 40 46 50 51 48 51 49 41 31 37 44 51 52 59 59 55 70 71 97 79 77 81 67 62 59 56 55 51 45 45 47 43 43 47 47
16 16 19 22 24 25 27 30 35 41 46 46 47 48 43 48 55 55 55 49 67 70 69 66 63 79 77 70 51 54 68 68 62 59 56 51 42 41 38 38 40 44 50
15 14 14 12 14 19 24 26 29 34 38 40 43 42 48 53 48 42 38 54 56 65 64 70 73 75 77 81 88 66 41 50 56 60 54 52 45 45 43 42 42 49 49
18 17 16 13 16 18 17 18 23 27 33 38 39 41 44 49 48 52 55 63 62 59 52 71 75 75 78 70 78 89 63 63 54 58 57 56 47 47 47 49 47 50 51
24 21 20 21 21 21 19 19 22 26 29 31 33 38 43 45 35 38 46 46 53 55 49 57 69 64 64 64 74 83 85 81 72 55 58 58 53 52 54 53 48 47 52
34 32 31 30 31 32 30 27 27 26 26 26 28 31 36 42 45 45 47 51 53 55 62 66 58 46 62 59 60 48 50 61 65 56 62 63 59 55 55 51 51 48 43
43 43 43 43 43 45 43 42 41 40 38 39 38 39 39 42 44 46 45 48 51 60 71 60 63 64 58 59 63 64 73 66 69 65 65 68 59 56 51 55 52 46 46
53 57 57 59 58 57 57 59 59 58 55 52 50 48 47 46 49 53 55 53 48 49 67 78 67 67 65 67 56 50 44 49 54 72 75 75 67 57 51 53 50 53 55
64 67 70 72 72 73 73 73 74 74 73 69 65 59 55 55 55 56 59 60 55 58 57 68 61 55 54 56 52 53 53 42 44 51 64 65 60 52 48 47 54 55 56
67 72 75 79 82 84 83 85 87 87 87 84 78 70 66 61 60 56 62 54 53 55 61 64 70 61 51 42 39 41 51 54 57 47 53 57 50 43 42 50 55 53 54
62 67 73 78 81 83 84 81 79 88 96 94 90 82 74 70 70 68 63 64 55 57 60 64 65 64 58 49 50 40 35 44 63 55 48 48 43 41 46 52 57 54 55
79 82 85 89 91 92 91 80 86 84 87 94 96 91 85 80 76 72 58 56 59 61 62 63 59 52 50 43 41 39 40 40 49 54 56 45 41 45 49 51 50 52 51
89 90 94 98 103 106 96 102 95 88 82 82 89 92 96 90 82 77 75 74 75 69 71 69 67 60 58 60 47 44 52 49 52 51 62 54 47 46 47 48 52 59 59
84 86 86 84 87 83 88 95 93 96 95 85 84 84 87 79 80 84 81 81 87 88 83 85 81 70 62 59 53 58 55 49 47 46 50 42 43 46 46 50 56 61 57
69 69 70 71 72 71 73 78 76 72 74 80 81 80 82 81 70 62 63 68 78 82 82 87 89 93 79 64 53 58 57 56 51 41 34 32 35 35 40 51 52 53 49
59 61 59 68 69 68 62 63 62 58 59 61 63 71 81 82 80 82 82 86 101 109 95 87 81 76 78 80 72 63 63 50 42 36 36 34 29 31 33 38 41 41 36
71 60 68 65 59 60 54 56 58 51 56 56 51 50 59 77 83 91 102 97 97 91 89 86 86 79 74 68 63 57 59 46 30 20 32 32 27 24 11 28 20 20 25
Wind_Direction_850mb
247 249 254 257 262 267 272 275 273 275 275 275 276 270 268 272 267 265 267 262 264 267 273 280 284 274 274 279 282 276 273 277 275 264 267 278 262 259 261 264 272 259 256
252 253 258 262 263 265 268 269 272 272 271 272 270 272 271 273 276 275 272 268 266 264 262 267 275 263 271 273 280 282 278 283 275 272 270 267 272 267 259 252 261 264 260
252 250 255 262 270 267 264 267 271 272 271 273 272 273 271 271 273 275 272 273 274 267 268 268 266 263 266 273 275 280 285 284 278 274 270 265 268 269 265 262 254 259 256
257 258 256 269 273 269 266 269 273 272 275 278 277 272 267 268 268 269 271 274 274 272 271 271 263 262 264 274 276 277 278 278 281 284 287 279 276 273 273 266 265 256 256
242 249 255 263 264 267 269 273 279 281 281 281 281 280 272 266 265 266 265 269 266 269 269 271 265 270 269 269 270 270 275 277 277 277 281 282 279 269 265 264 264 266 264
243 255 258 264 271 272 272 270 272 274 276 277 277 279 278 271 268 265 264 263 264 266 265 264 264 263 270 275 274 266 270 275 277 274 277 278 278 273 266 263 261 262 259
258 271 273 276 278 274 274 273 273 273 273 273 275 277 276 272 267 265 261 263 264 266 270 274 270 266 267 272 267 268 268 270 274 276 280 276 274 270 266 262 262 264 264
265 269 276 281 284 284 281 279 277 275 275 272 272 270 277 270 270 265 261 261 268 266 265 272 280 273 267 267 268 266 266 270 269 280 281 276 269 264 262 264 262 261 259
263 273 279 284 286 288 288 284 277 273 273 274 271 248 254 261 274 271 268 269 264 267 267 261 260 265 273 268 266 264 259 263 269 281 283 275 260 262 264 264 260 257 255
272 285 298 300 295 290 285 281 275 270 267 265 268 263 253 251 267 278 273 268 265 271 271 268 266 266 268 267 264 256 253 254 264 276 281 261 257 261 260 257 260 260 261
295 307 301 298 300 299 292 287 282 276 273 271 264 264 265 263 258 258 270 270 273 276 277 274 265 273 279 248 244 247 245 255 257 267 272 252 255 255 255 263 263 266 270
287 284 294 311 324 311 297 290 283 278 278 275 272 265 265 266 264 264 263 268 276 273 274 274 272 274 266 270 261 254 256 263 257 255 257 247 248 252 264 264 265 267 273
278 279 285 281 307 331 322 307 298 291 285 281 280 278 271 266 266 266 272 275 274 275 280 270 266 270 273 275 264 250 255 258 272 257 251 246 249 255 261 263 263 268 273
274 273 272 280 291 302 308 306 303 295 291 289 285 280 278 278 274 272 267 269 270 273 271 273 269 269 274 285 281 267 263 257 261 246 247 242 250 258 261 264 266 267 272
272 267 263 271 280 284 284 288 289 285 289 292 295 293 291 289 287 286 276 268 268 272 270 273 277 277 277 279 277 258 257 247 252 251 244 241 250 253 260 264 268 270 262
267 267 272 273 274 271 271 271 270 271 274 279 285 291 297 297 294 287 280 275 269 266 269 269 269 274 279 280 278 271 274 268 257 246 245 241 246 252 256 262 267 260 262
262 262 263 265 266 269 271 269 270 269 265 269 273 277 284 287 294 294 289 279 270 266 265 269 269 273 271 277 278 280 271 276 268 246 242 239 243 248 252 259 262 264 267
266 265 265 266 267 268 267 266 267 267 267 263 266 267 268 276 282 287 288 286 277 275 271 271 268 268 273 277 274 262 262 263 265 258 240 233 237 237 248 259 260 266 269
265 264 266 268 271 271 272 271 268 265 264 265 263 261 266 267 269 274 280 277 276 274 272 269 269 265 268 269 265 269 264 256 263 263 245 234 229 236 253 259 264 266 265
274 272 271 270 270 269 269 267 264 264 263 260 259 259 262 259 265 271 270 278 280 275 274 271 266 266 263 263 264 262 259 268 258 255 258 236 234 246 253 261 264 261 262
275 274 272 271 271 271 270 267 268 266 263 262 259 257 257 258 258 261 257 270 280 279 269 264 265 259 258 258 252 252 266 272 269 250 249 242 240 249 257 260 259 255 256
281 280 278 276 274 272 269 269 267 266 265 261 260 260 256 257 255 252 256 267 270 282 266 260 258 258 258 255 260 260 266 274 261 251 239 237 241 255 258 256 257 259 261
285 283 279 276 273 271 270 269 268 264 264 264 261 256 254 249 251 251 256 263 269 273 275 261 258 254 258 257 262 273 264 255 243 240 229 232 250 250 251 255 258 257 256
283 281 279 277 276 275 274 274 271 267 266 261 261 260 251 244 240 248 255 263 267 272 272 263 256 254 251 253 260 263 271 262 246 238 229 228 236 247 256 259 260 256 254
283 282 278 278 279 279 278 275 273 270 269 265 254 254 248 247 252 256 263 270 271 275 270 265 262 252 253 255 257 262 260 253 238 220 216 227 241 253 254 259 259 250 247
287 281 282 283 278 279 281 281 272 268 264 260 256 250 253 254 261 269 273 269 266 264 263 264 256 252 250 246 243 244 249 235 203 213 233 232 228 222 235 258 250 236 229